Aeroporto :
LOGIN :

Iscrizione | Disclaimer

   EN    FR    IT 

 










Sommario :    VFR   VFR Marginale   IFR   IFR Intensivo   IFR Molto Intensivo
Visibilità : 
Base nubi : 
>= 8 km
>= 3000ft
5 / 8 km
1000 / 3000 ft
1500m / 5 km
500 / 1000 ft
800 / 1500m
200 / 500 ft
< 800m
< 200 ft
Simboli :   Temporali  Nebbia  Neve Forte  Precipitazioni Forti  Vento > 20 kt
SIGMETs :   Varie  Temporali  Ghiacco  Turbolenza  Onda orograficha  Ceneri Vulcaniche






- Altitudine del aeroporto : 327 ft
- Codice IATA : BHX


EGBB - Birmingham

ULTIMO METAR :
  • 140650Z 35009KT 9999 FEW018 SCT036 14/11 Q1018

METARs OBSOLETI :
  • 140620Z 35007KT 9999 SCT034 14/11 Q1018
  • 140520Z 32006KT 9999 -RA FEW023 SCT029 BKN044 15/13 Q1017
  • 140450Z 31004KT 270V340 9999 SCT012 15/13 Q1017
  • 140420Z 31005KT 9999 FEW020 15/13 Q1017

TAF TAF EGBB
Valido dal 14 a 06 ore il 15 a 06 ore UTC


140457Z 1406/1506 31010KT 9999 SCT025
PROB30
TEMPO 1423/1424 7000 RA BKN020
BECMG 1500/1503 25004KT
TEMPO 1500/1506 6000 RADZ BKN012
ATIS : +44 121 780 0910



MetMap, La meteo Aeronautica in un colpo d'occhio ! - Copyright ORBIFLY Dicembre 2007 - Disclaimer

ORBIFLY MET'MAP TEAM :

Programmazione e sviluppo : Alexandra Zaïnal
Concezione : Baudouin d'Aumeries
Aiuto per la programmazione : Marc-Olivier Méhu
Supporto tecnico e logistico : Manuel Goepfert
Aiuto per la traduzione : Arnaldo La Scala

Contatto : metmap@orbifly.com




FONTI E CREDITI :

   NOAA